Location: *
(44.3683°N, 6.6958°E)
Time: 21:50:20
(UTC+00:00)

Cosmos 1844 Rocket - Pass Details

Date: 14 October 2019
Orbit: 826 x 843 km, 71.0° (Epoch: 19 November)

Event Time Altitude Azimuth Distance (km) Brightness Sun altitude
Rises 18:22:04 0° 218° (SW) 3,387 6.3 -17.0°
Reaches altitude 10° 18:24:34 10° 223° (SW) 2,455 5.6 -17.4°
Maximum altitude 18:30:04 53° 300° (WNW) 1,026 3.5 -18.4°
Drops below altitude 10° 18:35:35 10° 17° (NNE) 2,461 5.0 -19.4°
Sets 18:38:06 0° 23° (NNE) 3,396 5.7 -19.8°
